Terminal Aerodrome Forecast
Issued by NWS Sioux Falls, SD

Home | Current Version | Previous Version | Graphics & Text | Print | Product List | Glossary On
Versions: 1 2 3 4 5 6 7 8 9 10 11 12 13 14 15 16 17 18 19 20 21 22 23 24 25 26 27 28 29 30 31 32 33 34 35 36 37
000
FTUS43 KFSD 221700 AAA
TAFSUX
TAF AMD
KSUX 221700Z 2217/2312 19007KT 6SM BR OVC006
     FM221900 20009KT P6SM SCT250
     FM230300 15007KT P6SM SCT100
     FM230900 14008KT 5SM BR BKN010=

USA.gov is the U.S. government's official web portal to all federal, state and local government web resources and services.